This is the latest recevied weather packets stored in our database for station/object N4HAC. If no packets are shown the sender has not sent any weather packets the latest 10 day(s).
| Time | Temp. | Humidity | Pressure | Rain* | Wind** | Luminosity | Snow |
|---|---|---|---|---|---|---|---|
| 1777641308 | 11.67° C | 54% | 1009.8 hPa | 0 mm | - | 474 W/m² | - |
| 1777641004 | 12.22° C | 61% | 1009.9 hPa | 0 mm | - | 473 W/m² | - |
| 1777640701 | 12.22° C | 61% | 1010 hPa | 0 mm | - | 461 W/m² | - |
| 1777640397 | 11.67° C | 61% | 1009.9 hPa | 0 mm | - | 438 W/m² | - |
| 1777640094 | 11.11° C | 63% | 1009.9 hPa | 0 mm | - | 400 W/m² | - |
| 1777639791 | 11.11° C | 63% | 1010 hPa | 0 mm | - | 326 W/m² | - |
| 1777639489 | 10.56° C | 67% | 1010 hPa | 0 mm | - | 331 W/m² | - |
| 1777639185 | 11.11° C | 66% | 1009.9 hPa | 0 mm | - | 253 W/m² | - |
| 1777638881 | 10.56° C | 64% | 1010 hPa | 0 mm | - | 292 W/m² | - |
| 1777638577 | 11.11° C | 63% | 1010 hPa | 0 mm | - | 243 W/m² | - |
| 1777638274 | 11.11° C | 63% | 1009.9 hPa | 0 mm | - | 354 W/m² | - |
| 1777637970 | 10.56° C | 68% | 1010.2 hPa | 0 mm | - | 331 W/m² | - |
| 1777637666 | 10° C | 73% | 1010.1 hPa | 0 mm | - | 318 W/m² | - |
| 1777637364 | 9.44° C | 74% | 1010.1 hPa | 0 mm | - | 260 W/m² | - |
| 1777637060 | 8.89° C | 78% | 1010.1 hPa | 0 mm | - | 237 W/m² | - |
| 1777636756 | 8.33° C | 78% | 1010 hPa | 0 mm | - | 189 W/m² | - |
| 1777636452 | 7.78° C | 80% | 1010 hPa | 0 mm | - | 145 W/m² | - |
| 1777636149 | 7.78° C | 83% | 1010 hPa | 0 mm | - | 175 W/m² | - |
| 1777635844 | 7.78° C | 79% | 1010.1 hPa | 0 mm | - | 112 W/m² | - |
| 1777635540 | 9.44° C | 68% | 1010.1 hPa | 0 mm | - | 135 W/m² | - |
| 1777635237 | 8.89° C | 67% | 1010 hPa | 0 mm | - | 158 W/m² | - |
| 1777634933 | 8.33° C | 78% | 1010.1 hPa | 0 mm | - | 131 W/m² | - |
| 1777634630 | 7.78° C | 72% | 1009.9 hPa | 0 mm | - | 117 W/m² | - |
| 1777634328 | 7.78° C | 74% | 1009.9 hPa | 0 mm | - | 71 W/m² | - |
| 1777634024 | 7.22° C | 80% | 1009.8 hPa | 0 mm | - | 108 W/m² | - |
* Rain latest hour (hover to see other rain measurements)
** Current wind speed in m/s (hover to see current wind gust speed)